Weather reports worldwide

Advertisment
Vinga, Sweden (2516): temperature & dewpoint: 04.07.2020 11:00:00 - 10.07.2020 11:00:00 (CEST)Vinga, Sweden (2516): wind speed & gusts: 04.07.2020 11:00:00 - 10.07.2020 11:00:00 (CEST)Vinga, Sweden (2516): wind direction: 04.07.2020 11:00:00 - 10.07.2020 11:00:00 (CEST)Vinga, Sweden (2516): reduced air pressure: 04.07.2020 11:00:00 - 10.07.2020 11:00:00 (CEST)Vinga, Sweden (2516): visibility: 04.07.2020 11:00:00 - 10.07.2020 11:00:00 (CEST)Vinga, Sweden (2516): precipitation: 04.07.2020 11:00:00 - 10.07.2020 11:00:00 (CEST)
Date & Time tt [°C] td [°C] ff [km/h] ff [kn] fx [km/h] fx [kn] dd ppp [hPa] vv [km] rr [mm]
10.07.2020 11:00:00 14,4 9,3 18 10 25 13 S 1008,2 37 0,0
10.07.2020 10:00:00 14,2 9,0 14 8 22 12 S 1008,1 29 0,0
10.07.2020 09:00:00 14,4 8,8 18 10 23 12 S 1008,3 40 0,0
10.07.2020 08:00:00 13,9 8,9 13 7 18 10 S 1008,3 39 0,0
10.07.2020 07:00:00 13,6 9,4 8 4 11 6 S 1008,2 42 0,0
10.07.2020 06:00:00 13,8 9,4 5 3 10 6 ESE 1008,6 50 0,0
10.07.2020 05:00:00 13,5 10,3 9 5 13 7 ESE 1008,8 50 0,0
10.07.2020 04:00:00 13,7 9,3 0 0 8 5 N 1009,0 50 0,0
10.07.2020 03:00:00 13,7 9,1 3 2 9 5 WNW 1009,5 50 0,0
10.07.2020 02:00:00 13,8 9,4 5 3 9 5 NW 1009,7 50 0,0
10.07.2020 01:00:00 13,7 9,7 6 3 12 7 NW 1009,7 50 0,0
10.07.2020 00:00:00 14,1 9,7 8 4 12 7 NNW 1009,9 50 0,0
09.07.2020 23:00:00 14,5 9,9 9 5 15 8 NNW 1009,8 50 0,0
09.07.2020 22:00:00 15,4 8,2 5 3 13 7 SSW 1009,7 50 0,0
09.07.2020 21:00:00 15,7 9,4 10 5 16 9 SSW 1010,0 49 0,0
09.07.2020 20:00:00 15,7 9,6 14 8 22 12 SSW 1010,2 42 0,0
09.07.2020 19:00:00 16,1 9,5 18 10 23 13 S 1010,1 32 0,0
09.07.2020 18:00:00 15,9 9,6 21 11 27 15 S 1010,4 36 0,0
09.07.2020 17:00:00 16,1 10,2 22 12 27 15 S 1010,7 28 0,0
09.07.2020 16:00:00 15,9 9,3 24 13 31 17 S 1010,8 25 0,0
09.07.2020 15:00:00 15,4 9,5 27 15 33 18 S 1011,0 36 0,0
09.07.2020 14:00:00 16,3 9,5 16 9 23 12 S 1011,1 24 0,0
09.07.2020 13:00:00 15,4 9,3 16 9 24 13 S 1011,1 27 0,0
09.07.2020 12:00:00 15,0 9,8 18 10 24 13 SSW 1011,0 33 0,0
09.07.2020 11:00:00 14,1 9,7 19 11 24 13 SSW 1011,1 23 0,0
09.07.2020 10:00:00 14,7 9,5 18 10 27 14 SW 1011,1 24 0,0
09.07.2020 09:00:00 14,6 10,0 22 12 28 15 SW 1010,9 23 0,0
09.07.2020 08:00:00 14,3 9,7 24 13 30 16 SW 1010,5 30 0,0
09.07.2020 07:00:00 14,2 10,4 24 13 29 16 WSW 1010,2 26 0,0
09.07.2020 06:00:00 14,2 10,6 22 12 29 16 WSW 1010,1 25 0,0
09.07.2020 05:00:00 14,3 10,3 19 11 29 16 W 1010,0 25 0,0
09.07.2020 04:00:00 14,3 10,5 21 11 30 16 W 1009,8 25 0,0
09.07.2020 03:00:00 14,4 11,2 24 13 38 20 W 1010,0 18 0,0
09.07.2020 02:00:00 14,5 11,5 28 15 37 20 WSW 1010,0 16 0,0
09.07.2020 01:00:00 14,3 11,1 26 14 34 18 WSW 1009,9 16 0,0
09.07.2020 00:00:00 14,4 11,0 24 13 35 19 WSW 1010,1 17 0,0
08.07.2020 23:00:00 14,8 9,8 27 15 36 19 WSW 1010,1 33 0,0
08.07.2020 22:00:00 15,1 8,8 21 11 29 16 WSW 1010,1 44 0,0
08.07.2020 21:00:00 15,4 7,4 18 10 28 15 W 1009,8 40 0,0
08.07.2020 20:00:00 15,7 8,7 19 10 29 15 W 1009,6 38 0,0
08.07.2020 19:00:00 15,9 7,4 19 10 29 16 W 1009,6 48 0,0
08.07.2020 18:00:00 15,7 7,7 20 11 29 16 W 1009,5 49 0,0
08.07.2020 17:00:00 16,3 8,5 19 11 30 16 WNW 1009,4 50 0,0
08.07.2020 16:00:00 16,1 7,6 21 11 31 17 WNW 1009,3 41 0,0
08.07.2020 15:00:00 15,9 7,9 22 12 30 16 WNW 1009,1 41 0,0
08.07.2020 14:00:00 15,6 7,1 20 11 29 16 WNW 1008,9 44 0,0
08.07.2020 13:00:00 15,5 8,0 18 10 33 18 WNW 1008,4 39 0,0
08.07.2020 12:00:00 15,4 7,7 24 13 34 18 WNW 1008,0 35 0,0
08.07.2020 11:00:00 15,0 8,0 24 13 29 16 WNW 1007,5 34 0,0
08.07.2020 10:00:00 14,7 8,2 22 12 33 18 NW 1007,0 31 0,0
08.07.2020 09:00:00 13,7 7,9 26 14 38 21 NNW 1006,4 46 0,0
08.07.2020 08:00:00 13,9 7,9 29 16 45 25 NW 1005,8 48 0,0
08.07.2020 07:00:00 13,5 9,0 33 18 45 25 W 1005,3 32 0,0
08.07.2020 06:00:00 13,4 8,9 35 19 50 27 WNW 1005,3 28 0,0
08.07.2020 05:00:00 13,3 8,6 34 19 53 29 W 1005,1 26 0,0
08.07.2020 04:00:00 13,1 8,0 37 20 51 28 W 1005,1 30 0,0
08.07.2020 03:00:00 13,4 8,2 37 20 54 29 W 1005,2 24 0,0
08.07.2020 02:00:00 13,5 7,7 38 21 54 29 W 1005,2 24 0,0
08.07.2020 01:00:00 13,2 7,4 40 22 55 30 W 1005,5 20 0,0
08.07.2020 00:00:00 13,2 7,4 39 21 55 30 W 1005,8 17 0,0
07.07.2020 23:00:00 13,2 8,7 36 19 55 30 W 1005,9 13 0,0
07.07.2020 22:00:00 13,0 7,0 37 20 55 30 W 1006,3 16 0,0
07.07.2020 21:00:00 12,9 6,3 40 22 54 29 WSW 1006,6 17 0,0
07.07.2020 20:00:00 13,5 7,0 38 20 54 29 W 1006,5 17 0,0
07.07.2020 19:00:00 13,6 6,0 40 22 58 32 W 1006,9 21 0,0
07.07.2020 18:00:00 13,9 6,0 38 20 55 30 W 1007,1 25 0,0
07.07.2020 17:00:00 13,5 6,6 35 19 52 28 W 1007,5 26 0,0
07.07.2020 16:00:00 13,2 8,9 37 20 56 30 WSW 1007,6 14 0,4
07.07.2020 15:00:00 15,4 6,7 31 17 40 22 W 1007,8 20 0,0
07.07.2020 14:00:00 15,0 7,8 29 16 48 26 WSW 1008,0 19 0,0
07.07.2020 13:00:00 14,6 7,6 34 18 46 25 WSW 1008,1 21 0,0
07.07.2020 12:00:00 14,3 8,0 31 17 46 25 W 1008,2 21 0,0
07.07.2020 11:00:00 14,1 7,8 35 19 55 30 WSW 1008,3 27 0,0
07.07.2020 10:00:00 13,8 8,4 33 18 55 30 W 1008,0 20 0,0
07.07.2020 09:00:00 13,9 9,1 37 20 56 31 W 1007,7 15 0,0
07.07.2020 08:00:00 13,4 9,3 41 22 66 36 W 1007,8 11 0,0
07.07.2020 07:00:00 13,7 8,7 49 26 73 39 W 1007,2 15 0,0
07.07.2020 06:00:00 13,3 8,8 51 28 71 38 W 1007,2 15 0,0
07.07.2020 05:00:00 13,3 7,7 49 27 65 35 WNW 1006,7 18 0,0
07.07.2020 04:00:00 13,1 6,9 49 26 67 36 WNW 1006,3 19 0,0
07.07.2020 03:00:00 13,4 7,6 50 27 66 36 WNW 1005,5 19 0,0
07.07.2020 02:00:00 14,0 7,3 53 29 67 36 WNW 1004,6 21 0,0
07.07.2020 01:00:00 14,5 8,7 53 28 68 37 WNW 1003,8 19 0,0
07.07.2020 00:00:00 15,0 8,7 52 28 69 37 WNW 1002,9 17 0,0
06.07.2020 23:00:00 15,4 9,1 50 27 68 37 WNW 1002,0 19 0,0
06.07.2020 22:00:00 15,6 10,6 40 22 59 32 W 1001,0 14 0,0
06.07.2020 21:00:00 15,7 10,7 41 22 61 33 W 1000,0 13 0,0
06.07.2020 20:00:00 16,0 10,3 51 27 69 37 WNW 998,7 12 0,1
06.07.2020 19:00:00 15,9 10,9 48 26 74 40 W 997,0 10 0,0
06.07.2020 18:00:00 15,7 10,9 47 26 68 37 W 995,9 9 0,1
06.07.2020 17:00:00 15,9 11,3 48 26 68 37 W 994,9 9 0,0
06.07.2020 16:00:00 14,9 11,5 49 26 76 41 W 994,0 8 0,0
06.07.2020 15:00:00 14,0 12,4 54 29 80 43 WSW 993,2 7 0,4
06.07.2020 14:00:00 13,5 11,4 56 30 74 40 SW 993,6 4,3 1,4
06.07.2020 13:00:00 14,1 10,5 58 31 71 38 SW 993,9 10 0,5
06.07.2020 12:00:00 12,4 10,5 51 28 68 37 SW 994,4 2,0 2,1
06.07.2020 11:00:00 14,6 10,0 53 29 65 35 SW 994,3 15 0,0
06.07.2020 10:00:00 14,2 10,4 48 26 64 35 SW 994,4 16 0,0
06.07.2020 09:00:00 13,7 11,2 52 28 62 33 SW 994,3 10 0,1
06.07.2020 08:00:00 13,1 11,0 49 27 63 34 SW 994,3 6 0,4
06.07.2020 07:00:00 13,1 10,6 53 28 69 37 SW 994,2 6 0,2
06.07.2020 06:00:00 13,5 10,5 53 29 67 36 SW 994,1 11 0,0
06.07.2020 05:00:00 13,7 10,7 48 26 71 38 SW 994,4 - 0,0
06.07.2020 04:00:00 13,5 10,5 55 30 76 41 SW 994,4 10 0,0
06.07.2020 03:00:00 13,7 11,2 53 29 72 39 SW 994,9 8 0,2
06.07.2020 02:00:00 14,0 10,4 56 30 70 38 SW 995,4 10 0,1
06.07.2020 01:00:00 14,2 10,4 56 30 71 38 SW 995,6 10 0,0
06.07.2020 00:00:00 14,3 10,1 53 29 71 38 SW 996,0 13 0,2
05.07.2020 23:00:00 14,6 10,0 49 27 71 38 SW 996,3 13 0,0
05.07.2020 22:00:00 15,0 10,0 56 30 77 42 WSW 996,2 12 0,0
05.07.2020 21:00:00 15,4 10,6 54 29 79 43 WSW 995,6 11 0,0
05.07.2020 20:00:00 15,7 10,7 48 26 69 37 WSW 995,6 12 0,0
05.07.2020 19:00:00 15,9 13,2 39 21 62 34 SW 994,8 8 0,0
05.07.2020 18:00:00 15,8 13,8 45 24 68 37 SW 994,5 4,5 0,5
05.07.2020 17:00:00 17,1 12,0 51 27 69 37 SW 994,0 11 0,0
05.07.2020 16:00:00 17,7 12,8 44 24 74 40 SW 993,3 10 0,0
05.07.2020 15:00:00 18,0 14,1 56 31 68 37 SW 992,7 9 0,0
05.07.2020 14:00:00 17,9 15,7 54 29 66 36 SW 992,5 9 0,0
05.07.2020 13:00:00 16,9 15,8 54 29 75 40 SSW 992,1 7 0,0
05.07.2020 12:00:00 17,0 15,7 63 34 77 42 SSW 991,8 9 0,0
05.07.2020 11:00:00 17,0 16,4 58 31 71 38 S 992,2 11 1,8
05.07.2020 10:00:00 16,2 15,6 52 28 60 32 S 993,8 2,0 2,1
05.07.2020 09:00:00 16,2 15,6 46 25 54 29 S 995,1 7 0,8
05.07.2020 08:00:00 16,1 15,3 40 21 46 25 S 996,5 8 0,0
05.07.2020 07:00:00 15,8 15,0 36 19 40 22 SSW 997,8 18 0,0
05.07.2020 06:00:00 15,1 14,4 17 9 21 11 S 999,4 2,9 0,0
05.07.2020 05:00:00 14,7 13,5 16 8 22 12 SSW 1000,3 4,3 0,2
05.07.2020 04:00:00 15,2 13,4 17 9 23 12 SSW 1001,1 33 0,0
05.07.2020 03:00:00 14,9 13,3 16 9 23 13 SW 1001,9 30 0,7
05.07.2020 02:00:00 15,0 12,7 20 11 26 14 WSW 1002,6 20 0,0
05.07.2020 01:00:00 15,4 12,7 23 12 27 14 SW 1002,6 48 0,0
05.07.2020 00:00:00 15,5 13,2 23 13 29 16 WSW 1002,9 36 0,0
04.07.2020 23:00:00 15,6 13,4 16 8 19 10 SSW 1002,9 31 0,0
04.07.2020 22:00:00 15,3 13,3 15 8 23 12 SW 1003,0 23 0,0
04.07.2020 21:00:00 15,6 13,3 18 10 24 13 SW 1003,1 27 0,0
04.07.2020 20:00:00 15,9 13,4 19 10 25 13 SW 1003,1 23 0,0
04.07.2020 19:00:00 16,4 13,1 18 10 21 11 SW 1003,0 24 0,0
04.07.2020 18:00:00 16,4 12,6 18 10 27 15 SW 1003,4 35 0,0
04.07.2020 17:00:00 16,3 12,7 24 13 31 17 WSW 1003,4 32 0,0
04.07.2020 16:00:00 16,3 12,8 22 12 32 17 WSW 1003,3 22 0,0
04.07.2020 15:00:00 16,4 13,5 27 15 33 18 SW 1003,2 25 0,0
04.07.2020 14:00:00 16,3 14,1 22 12 29 15 SW 1003,0 14 0,0
04.07.2020 13:00:00 16,0 14,7 21 12 56 30 WSW 1003,1 14 0,6
04.07.2020 12:00:00 16,0 15,2 47 26 55 30 SW 1002,4 4,6 0,7
04.07.2020 11:00:00 16,1 15,0 40 22 49 26 SW 1002,2 3,8 0,0

tt = temperature
td = dewpoint
ff = wind speed
fx = gusts
dd = wind direction
ppp = reduced air pressure
vv = visibility
rr = precipitation

Next stations